METAR AND TAF INFORMATION
METAR FOR TNCB
ADDS - METARS form results

(2302 UTC 02 June 2020)
Data provider http://aviationweather.gov/metar/data/
 
Forecast for: TNCB (BONAIRE/FLAMINGO, AN)
Text: TAF TNCB 021705Z 0218/0324 09015KT 9999 FEW018
Forecast period: 1800 UTC 02 June 2020 to 0000 UTC 04 June 2020
Forecast type: FROM: standard forecast or significant change
Winds: from the E (90 degrees) at 17 MPH (15 knots; 7.7 m/s)
Visibility: 6 or more miles 10+ km)
Ceiling: at least 12,000 feet AGL
Clouds: few clouds at 1800 feet AGL
Weather: no significant weather forecast for this period

 AIRPORT MAP

 RUNWAY INFORMATION
Runway 10 Runway length 9449 ft Runway width 148 ft
Runway elevation 14 ft Runway displaced threshold 0 ft Runway heading 92
Runway 28 Runway length 9449 ft Runway width 148 ft
Runway elevation 20 ft Runway displaced threshold 0 ft Runway heading 272

 AIRPORT FREQUENCIES
Type TWR Name TWR Frequency 118.7 MHZ

 AIRPORT NEAR NAVIGATION AIDS
Type NDB Name Bonaire Frequency 321 KHZ



Powered by Virtual Airlines Manager [v2.6.2]